K4FB Weather Reports


time (UTC)temp
C
wind
direction
speed
KPH
gust
KPH
rain 1hr
cm
rain 24hr
cm
rain mn
cm
humidity
%
barometer
mb
20260831120028 23 67 0.0 0.0 0.00 0.00 0.00 95 1018.2
20260831115506 23 67 0.0 0.0 0.00 0.00 0.00 95 1018.1
20260831115007 23 67 0.0 0.0 0.00 0.00 0.00 95 1018.0
20260831114526 23 67 0.0 0.0 0.00 0.00 0.00 95 1018.0
20260831114010 22 67 0.0 0.0 0.00 0.00 0.00 95 1017.9
20260831113513 22 67 0.0 0.0 0.00 0.00 0.00 94 1017.9
20260831113019 22 67 0.0 0.0 0.00 0.00 0.00 94 1017.6
20260831112512 22 67 0.0 0.0 0.00 0.00 0.00 94 1017.5
20260831112012 22 67 0.0 0.0 0.00 0.00 0.00 94 1017.5
20260831111532 22 67 0.0 0.0 0.00 0.00 0.00 94 1017.4
20260831111010 22 67 0.0 0.0 0.00 0.00 0.00 94 1017.3
20260831110512 22 67 0.0 0.0 0.00 0.00 0.00 94 1017.2
20260831110033 22 67 0.0 0.0 0.00 0.00 0.00 94 1017.1
20260831105516 22 67 0.0 0.0 0.00 0.00 0.00 94 1017.0
20260831105011 22 67 0.0 0.0 0.00 0.00 0.00 94 1017.0
20260831104531 22 67 0.0 0.0 0.00 0.00 0.00 94 1016.9
20260831104007 22 67 0.0 0.0 0.00 0.00 0.00 94 1016.9
20260831103507 22 67 0.0 0.0 0.00 0.00 0.00 94 1016.8
20260831103049 22 67 0.0 0.0 0.00 0.00 0.00 94 1016.9
20260831102504 22 67 0.0 0.0 0.00 0.00 0.00 94 1016.9
20260831102004 22 67 0.0 0.0 0.00 0.00 0.00 94 1016.9
20260831101508 22 67 0.0 0.0 0.00 0.00 0.00 94 1017.0
20260831101005 22 67 0.0 0.0 0.00 0.00 0.00 94 1016.8
20260831100504 22 67 0.0 0.0 0.00 0.00 0.00 94 1016.7
20260831100012 22 67 0.0 0.0 0.00 0.00 0.00 93 1016.6
20260831095504 22 67 0.0 0.0 0.00 0.00 0.00 93 1016.7
20260831095003 22 67 0.0 0.0 0.00 0.00 0.00 94 1016.8
20260831094526 22 67 0.0 0.0 0.00 0.00 0.00 93 1016.7
20260831094008 22 67 0.0 0.0 0.00 0.00 0.00 94 1016.7
20260831093503 22 67 0.0 0.0 0.00 0.00 0.00 93 1016.7
20260831093015 22 67 0.0 0.0 0.00 0.00 0.00 93 1016.8
20260831092507 22 67 0.0 0.0 0.00 0.00 0.00 93 1016.9
20260831092002 23 67 0.0 0.0 0.00 0.00 0.00 93 1016.8
20260831091504 23 67 0.0 0.0 0.00 0.00 0.00 93 1016.8
20260831091003 23 67 0.0 0.0 0.00 0.00 0.00 93 1016.7
20260831090506 23 67 0.0 0.0 0.00 0.00 0.00 93 1016.7
20260831090007 23 67 0.0 0.0 0.00 0.00 0.00 93 1016.6
20260831085504 23 67 0.0 0.0 0.00 0.00 0.00 93 1016.7
20260831085005 23 67 0.0 0.0 0.00 0.00 0.00 94 1016.7
20260831084504 23 67 0.0 0.0 0.00 0.00 0.00 93 1016.8
20260831084004 23 67 0.0 0.0 0.00 0.00 0.00 93 1016.8
20260831083507 23 67 0.0 0.0 0.00 0.00 0.00 93 1016.8
20260831083023 23 67 0.0 0.0 0.00 0.00 0.00 93 1016.7
20260831082504 23 67 0.0 0.0 0.00 0.00 0.00 94 1016.7
20260831082004 23 67 0.0 0.0 0.00 0.00 0.00 94 1016.5
20260831081523 23 67 0.0 0.0 0.00 0.00 0.00 94 1016.6
20260831081014 23 76 0.0 0.0 0.00 0.00 0.00 93 1016.6
20260831080507 23 77 0.0 0.0 0.00 0.00 0.00 93 1016.8
20260831080022 23 59 0.0 0.0 0.00 0.00 0.00 93 1016.7
20260831075503 23 48 0.0 0.0 0.00 0.00 0.00 93 1016.6
20260831075004 23 48 0.0 0.0 0.00 0.00 0.00 93 1016.7
20260831074513 23 48 0.0 0.0 0.00 0.00 0.00 93 1017.0
20260831074006 23 48 0.0 0.0 0.00 0.00 0.00 93 1017.0
20260831073507 23 48 0.0 0.0 0.00 0.00 0.00 93 1017.1
20260831073019 23 48 0.0 0.0 0.00 0.00 0.00 93 1017.1
20260831072506 23 47 0.0 0.0 0.00 0.00 0.00 93 1017.1
20260831072011 23 47 0.0 0.0 0.00 0.00 0.00 93 1017.2
20260831071507 23 47 0.0 0.0 0.00 0.00 0.00 93 1017.4
20260831071003 23 47 0.0 0.0 0.00 0.00 0.00 93 1017.3
20260831070507 23 47 0.0 0.0 0.00 0.00 0.00 93 1017.2
20260831070030 23 47 0.0 0.0 0.00 0.00 0.00 93 1017.2
20260831065507 23 47 0.0 0.0 0.00 0.00 0.00 93 1017.2
20260831065004 23 47 0.0 0.0 0.00 0.00 0.00 93 1017.3
20260831064510 23 47 0.0 0.0 0.00 0.00 0.00 93 1017.4
20260831064004 23 47 0.0 0.0 0.00 0.00 0.00 93 1017.4
20260831063504 23 42 0.0 0.0 0.00 0.00 0.00 92 1017.2
20260831063024 23 42 0.0 0.0 0.00 0.00 0.00 93 1017.3
20260831062507 23 42 0.0 0.0 0.00 0.00 0.00 92 1017.3
20260831062008 23 42 0.0 0.0 0.00 0.00 0.00 92 1017.3
20260831061516 23 42 0.0 0.0 0.00 0.00 0.00 93 1017.4
20260831061013 23 42 0.0 0.0 0.00 0.00 0.00 92 1017.4
20260831060503 23 42 0.0 0.0 0.00 0.00 0.00 92 1017.5
20260831060014 23 42 0.0 0.0 0.00 0.00 0.00 92 1017.4
20260831055507 23 42 0.0 0.0 0.00 0.00 0.00 92 1017.4
20260831055011 23 42 0.0 0.0 0.00 0.00 0.00 92 1017.5
20260831054513 23 42 0.0 0.0 0.00 0.00 0.00 92 1017.7
20260831054004 23 42 0.0 0.0 0.00 0.03 0.00 92 1017.8
20260831053503 23 42 0.0 0.0 0.00 0.03 0.00 92 1017.9
20260831053014 23 42 0.0 0.0 0.00 0.03 0.00 92 1018.0
20260831052504 22 42 0.0 0.0 0.00 0.03 0.00 92 1018.0
20260831052004 23 42 0.0 0.0 0.00 0.03 0.00 92 1018.1
20260831051518 22 42 0.0 0.0 0.00 0.03 0.00 91 1018.1
20260831051004 22 42 0.0 0.0 0.00 0.03 0.00 91 1018.1
20260831050507 23 42 0.0 0.0 0.00 0.03 0.00 91 1018.1
20260831050027 23 42 0.0 0.0 0.00 0.03 0.00 91 1018.1
20260831045513 23 42 0.0 0.0 0.00 0.03 0.00 91 1018.2
20260831045004 23 42 0.0 0.0 0.00 0.03 0.00 91 1018.4
20260831044528 23 42 0.0 0.0 0.00 0.03 0.00 91 1018.3
20260831044014 23 42 0.0 0.0 0.00 0.03 0.00 91 1018.4
20260831043507 23 42 0.0 0.0 0.00 0.03 0.00 91 1018.3
20260831043019 23 42 0.0 0.0 0.00 0.03 0.00 91 1018.3
20260831042506 23 42 0.0 0.0 0.00 0.03 0.00 91 1018.4
20260831042004 23 42 0.0 0.0 0.00 0.03 0.00 91 1018.4
20260831041516 23 42 0.0 0.0 0.00 0.03 0.00 91 1018.4
20260831041008 23 42 0.0 0.0 0.00 0.03 0.00 91 1018.4
20260831040508 23 42 0.0 0.0 0.00 0.03 0.00 91 1018.4
20260831040009 23 42 0.0 0.0 0.00 0.03 0.00 91 1018.5
20260831035506 23 42 0.0 0.0 0.00 0.03 0.03 91 1018.5
20260831035009 23 42 0.0 0.0 0.00 0.03 0.03 91 1018.5
20260831034526 23 42 0.0 0.0 0.00 0.03 0.03 91 1018.5
20260831034006 23 42 0.0 0.0 0.00 0.03 0.03 91 1018.4
20260831033510 23 42 0.0 0.0 0.00 0.03 0.03 91 1018.5
20260831033031 23 42 0.0 0.0 0.00 0.03 0.03 90 1018.6
20260831032516 23 42 0.0 0.0 0.00 0.03 0.03 90 1018.5
20260831032007 23 42 0.0 0.0 0.00 0.03 0.03 90 1018.5
20260831031539 23 271 0.0 0.0 0.00 0.03 0.03 90 1018.4
20260831031004 23 271 0.0 0.0 0.00 0.03 0.03 90 1018.4
20260831030504 23 271 0.0 0.0 0.00 0.03 0.03 90 1018.3
20260831030017 23 271 0.0 0.0 0.00 0.03 0.03 90 1018.3
20260831025510 23 271 0.0 0.0 0.00 0.03 0.03 90 1018.2
20260831025011 23 271 0.0 0.0 0.00 0.03 0.03 90 1018.3
20260831024519 23 271 0.0 0.0 0.00 0.03 0.03 90 1018.3
20260831024012 23 271 0.0 0.0 0.00 0.03 0.03 90 1018.3
20260831023512 23 271 0.0 0.0 0.00 0.03 0.03 90 1018.4
20260831023015 23 271 0.0 0.0 0.00 0.03 0.03 90 1018.5
20260831022510 23 270 0.0 0.0 0.00 0.03 0.03 89 1018.5
20260831022012 23 270 0.0 0.0 0.00 0.03 0.03 90 1018.5
20260831021533 23 270 0.0 0.0 0.00 0.03 0.03 89 1018.5
20260831021009 23 270 0.0 0.0 0.00 0.03 0.03 89 1018.5
20260831020512 23 270 0.0 0.0 0.00 0.03 0.03 89 1018.6
20260831020014 23 270 0.0 0.0 0.00 0.03 0.03 89 1018.6
20260831015508 23 270 0.0 0.0 0.00 0.03 0.03 89 1018.6
20260831015008 23 270 0.0 0.0 0.00 0.03 0.03 88 1018.6
20260831014525 23 270 0.0 0.0 0.00 0.03 0.03 89 1018.7
20260831014012 23 270 0.0 0.0 0.00 0.03 0.03 88 1018.7
20260831013507 24 270 0.0 0.0 0.00 0.03 0.03 88 1018.6
20260831013028 24 270 0.0 0.0 0.00 0.03 0.03 88 1018.6
20260831012512 24 270 0.0 0.0 0.00 0.03 0.03 88 1018.7
20260831012007 24 270 0.0 0.0 0.00 0.03 0.03 88 1018.8
20260831011509 24 270 0.0 0.0 0.00 0.03 0.03 88 1018.7
20260831011003 24 270 0.0 0.0 0.00 0.03 0.03 88 1018.7
20260831010504 24 270 0.0 0.0 0.00 0.03 0.03 87 1018.6
20260831010012 25 270 0.0 0.0 0.00 0.03 0.03 87 1018.6
20260831005504 25 270 0.0 0.0 0.00 0.03 0.03 87 1018.6
20260831005004 25 270 0.0 0.0 0.00 0.03 0.03 87 1018.5
20260831004518 25 270 0.0 0.0 0.00 0.03 0.03 86 1018.5
20260831004005 25 270 0.0 0.0 0.00 0.03 0.03 86 1018.5
20260831003509 25 271 0.0 0.0 0.00 0.03 0.03 86 1018.4
20260831003011 25 271 0.0 0.0 0.00 0.03 0.03 85 1018.2
20260831002507 25 271 0.0 0.0 0.00 0.03 0.03 85 1018.3
20260831002012 25 271 0.0 0.0 0.00 0.03 0.03 85 1018.3
20260831001508 25 271 0.0 0.0 0.00 0.03 0.03 84 1018.1
20260831001009 25 222 0.0 0.0 0.00 0.03 0.03 84 1018.0
20260831000508 25 215 0.0 0.0 0.00 0.03 0.03 84 1017.8
20260831000020 25 215 0.0 0.0 0.00 0.03 0.03 84 1017.9
20260830235504 25 215 0.0 0.0 0.00 0.03 0.03 84 1017.8
20260830235005 25 214 0.0 0.0 0.00 0.05 0.03 83 1017.8
20260830234531 25 214 0.0 0.0 0.00 0.05 0.03 84 1017.6
20260830234008 25 214 0.0 0.0 0.00 0.05 0.03 83 1017.4
20260830233504 25 214 0.0 0.0 0.00 0.08 0.03 83 1017.5
20260830233024 25 214 0.0 0.0 0.00 0.08 0.03 83 1017.6
20260830232511 25 214 0.0 0.0 0.00 0.10 0.03 83 1017.5
20260830232007 25 214 0.0 0.0 0.00 0.10 0.03 83 1017.5
20260830231516 25 214 0.0 0.0 0.00 0.10 0.03 83 1017.6
20260830231015 25 214 0.0 0.0 0.00 0.13 0.03 83 1017.6
20260830230515 25 214 0.0 0.0 0.00 0.13 0.03 82 1017.6
20260830230021 26 214 0.0 0.0 0.00 0.13 0.03 82 1017.6
20260830225510 26 214 0.0 0.0 0.00 0.13 0.03 83 1017.6
20260830225003 26 214 0.0 0.0 0.00 0.13 0.03 83 1017.5
20260830224511 26 203 0.0 0.0 0.00 0.13 0.03 83 1017.5
20260830224012 26 203 0.0 0.0 0.00 0.13 0.03 82 1017.6
20260830223504 26 202 0.0 1.6 0.00 0.13 0.03 83 1017.7
20260830223016 26 202 0.0 8.0 0.00 0.13 0.03 83 1017.6
20260830222503 26 207 1.6 8.0 0.00 0.13 0.03 82 1017.7
20260830222019 26 199 1.6 8.0 0.00 0.13 0.03 82 1017.6
20260830221531 26 168 0.0 4.8 0.00 0.13 0.03 83 1017.6
20260830221004 26 196 0.0 4.8 0.00 0.13 0.03 84 1017.6
20260830220506 26 196 0.0 3.2 0.00 0.13 0.03 85 1017.3
20260830220027 26 178 0.0 4.8 0.00 0.13 0.03 85 1017.2
20260830215516 26 188 0.0 6.4 0.00 0.13 0.03 85 1017.2
20260830215005 26 193 1.6 6.4 0.00 0.13 0.03 85 1017.2
20260830214525 26 165 0.0 6.4 0.00 0.15 0.03 86 1017.2
20260830214003 26 172 0.0 8.0 0.00 0.15 0.03 86 1017.3
20260830213505 26 182 1.6 8.0 0.00 0.18 0.03 86 1017.3
20260830213020 26 172 0.0 8.0 0.00 0.66 0.03 86 1017.3
20260830212507 26 165 0.0 3.2 0.00 1.12 0.03 86 1017.3
20260830212008 26 140 0.0 8.0 0.00 1.12 0.03 86 1017.3
20260830211515 26 159 0.0 8.0 0.00 1.12 0.03 86 1017.4
20260830211008 25 190 0.0 9.7 0.00 1.12 0.03 86 1017.4
20260830210514 26 196 1.6 9.7 0.00 1.12 0.03 85 1017.4
20260830210028 26 195 3.2 14.5 0.00 1.12 0.03 85 1017.5
20260830205512 26 188 3.2 14.5 0.00 1.12 0.03 85 1017.6
20260830205015 26 154 0.0 6.4 0.00 1.12 0.03 85 1017.7
20260830204541 26 189 0.0 19.3 0.00 1.12 0.03 85 1017.7
20260830204008 26 167 0.0 20.9 0.00 1.12 0.03 84 1017.6
20260830203516 26 180 8.0 20.9 0.00 1.12 0.03 83 1017.6
20260830203038 27 175 9.7 20.9 0.00 1.12 0.03 83 1017.6
20260830202504 27 189 8.0 19.3 0.00 1.12 0.03 82 1017.6
20260830202008 27 185 6.4 16.1 0.00 1.12 0.03 78 1017.6
20260830201518 28 182 4.8 16.1 0.00 1.12 0.03 76 1017.6
20260830201010 28 99 3.2 16.1 0.00 1.12 0.03 76 1017.5
20260830200503 28 155 4.8 24.1 0.00 1.12 0.03 75 1017.2
20260830200039 29 140 9.7 24.1 0.00 1.12 0.03 75 1017.1
20260830195513 29 90 1.6 17.7 0.00 1.12 0.03 74 1017.0
20260830195017 29 105 1.6 22.5 0.00 1.12 0.03 73 1017.0
20260830194517 30 95 8.0 22.5 0.00 1.12 0.03 72 1017.1
20260830194015 30 119 14.5 22.5 0.00 1.12 0.03 70 1017.1
20260830193517 31 124 12.9 29.0 0.00 1.12 0.03 69 1017.1
20260830193030 31 70 14.5 29.0 0.00 1.12 0.03 67 1017.1
20260830192508 33 72 14.5 29.0 0.00 1.12 0.03 65 1017.2
20260830192016 33 114 6.4 12.9 0.00 1.12 0.03 65 1017.0
20260830191515 34 112 0.0 9.7 0.00 1.12 0.03 66 1016.9
20260830191008 33 61 0.0 11.3 0.00 1.12 0.03 68 1017.0
20260830190509 33 90 1.6 11.3 0.00 1.12 0.03 66 1017.1
20260830190021 33 53 0.0 9.7 0.00 1.12 0.03 67 1017.2
20260830185508 33 23 3.2 8.0 0.00 1.12 0.03 70 1017.3
20260830185011 32 35 1.6 8.0 0.00 1.12 0.03 70 1017.5
20260830184529 32 65 0.0 8.0 0.00 1.12 0.03 69 1017.5
20260830184013 33 70 0.0 12.9 0.00 1.12 0.03 67 1017.5
20260830183508 33 52 4.8 12.9 0.00 1.12 0.03 68 1017.4
20260830183026 33 100 0.0 11.3 0.00 1.12 0.03 69 1017.5
20260830182516 33 75 3.2 11.3 0.00 1.12 0.03 71 1017.6
20260830182015 33 74 0.0 8.0 0.00 1.12 0.03 68 1017.8
20260830181523 33 74 0.0 11.3 0.00 1.12 0.03 69 1017.6
20260830181014 33 74 3.2 11.3 0.00 1.12 0.03 73 1017.7
20260830180523 33 94 0.0 12.9 0.00 1.12 0.03 72 1017.9
20260830180019 32 69 4.8 12.9 0.00 1.12 0.03 71 1018.0
20260830175510 32 51 0.0 6.4 0.00 1.12 0.03 70 1018.0
20260830175013 32 17 0.0 6.4 0.00 1.12 0.03 70 1018.0
20260830174524 33 64 0.0 4.8 0.00 1.12 0.03 70 1018.0
20260830174008 33 5 0.0 6.4 0.00 1.12 0.03 70 1018.1
20260830173517 32 38 0.0 6.4 0.00 1.12 0.03 71 1018.1
20260830173029 32 140 0.0 3.2 0.00 1.12 0.03 73 1018.1
20260830172506 32 66 0.0 6.4 0.00 1.12 0.03 71 1018.3
20260830172020 32 113 1.6 6.4 0.00 1.12 0.03 74 1018.5
20260830171532 32 69 0.0 9.7 0.00 1.12 0.03 76 1018.4
20260830171014 32 346 0.0 9.7 0.00 1.12 0.03 75 1018.5
20260830170508 32 30 0.0 4.8 0.00 1.12 0.03 75 1018.6
20260830170034 32 102 0.0 4.8 0.00 1.12 0.03 77 1018.7
20260830165515 31 168 0.0 3.2 0.00 1.12 0.03 78 1018.7
20260830165017 31 202 0.0 3.2 0.00 1.12 0.03 81 1018.8
20260830164543 30 20 0.0 1.6 0.00 1.12 0.03 81 1018.8
20260830164013 30 84 0.0 1.6 0.00 1.12 0.03 80 1018.8
20260830163510 30 207 0.0 0.0 0.00 1.12 0.03 78 1018.9
20260830163023 30 223 0.0 0.0 0.00 1.12 0.03 79 1018.8
20260830162514 30 200 0.0 0.0 0.00 1.12 0.03 81 1018.9
20260830162018 30 219 0.0 1.6 0.00 1.12 0.03 80 1018.9
20260830161533 30 194 0.0 3.2 0.00 1.12 0.03 81 1018.9
20260830161013 30 198 0.0 3.2 0.00 1.12 0.03 80 1018.8
20260830160503 30 54 0.0 6.4 0.00 1.12 0.03 79 1018.9
20260830160012 30 87 0.0 6.4 0.00 1.12 0.03 81 1018.9
20260830155511 30 97 0.0 3.2 0.00 1.12 0.03 83 1019.1
20260830155005 30 68 0.0 8.0 0.00 1.12 0.03 84 1019.1
20260830154513 29 32 0.0 12.9 0.00 1.12 0.03 85 1019.2
20260830154005 28 126 1.6 12.9 0.00 1.12 0.03 85 1019.0
20260830153509 28 360 0.0 0.0 0.00 1.12 0.03 85 1019.3
20260830153010 28 306 0.0 0.0 0.00 1.12 0.03 86 1019.4
20260830152506 28 336 0.0 0.0 0.00 1.12 0.03 87 1019.3
20260830152003 28 18 0.0 0.0 0.00 1.12 0.03 87 1019.3
20260830151506 28 20 0.0 0.0 0.00 1.12 0.03 87 1019.4
20260830151004 28 87 0.0 1.6 0.00 1.12 0.03 87 1019.5
20260830150503 28 101 0.0 1.6 0.00 1.12 0.03 87 1019.5
20260830150013 28 55 0.0 0.0 0.00 1.12 0.03 88 1019.5
20260830145506 28 55 0.0 0.0 0.00 1.12 0.03 89 1019.6
20260830145003 28 59 0.0 0.0 0.00 1.12 0.03 88 1019.7
20260830144514 28 49 0.0 0.0 0.00 1.12 0.03 89 1019.6
20260830144003 28 32 0.0 1.6 0.00 1.12 0.03 89 1019.6
20260830143504 28 36 0.0 1.6 0.00 1.12 0.03 89 1019.5
20260830143019 27 48 0.0 1.6 0.00 1.12 0.03 91 1019.7
20260830142514 27 95 0.0 1.6 0.00 1.12 0.03 91 1019.7
20260830142004 27 56 0.0 1.6 0.00 1.12 0.03 92 1019.5
20260830141514 27 32 0.0 1.6 0.00 1.12 0.03 93 1019.6
20260830141007 27 40 0.0 1.6 0.00 1.12 0.03 93 1019.6
20260830140507 26 5 0.0 1.6 0.00 1.12 0.03 94 1019.6
20260830140014 26 333 0.0 1.6 0.00 1.12 0.03 94 1019.5
20260830135505 26 36 0.0 1.6 0.00 1.12 0.03 94 1019.5
20260830135011 26 23 0.0 1.6 0.00 1.12 0.03 94 1019.6
20260830134519 26 33 0.0 1.6 0.00 1.12 0.03 94 1019.6
20260830134006 26 24 0.0 3.2 0.00 1.12 0.03 95 1019.5
20260830133509 25 56 0.0 3.2 0.00 1.12 0.03 95 1019.6
20260830133024 25 12 0.0 3.2 0.00 1.12 0.03 95 1019.5
20260830132504 25 36 0.0 3.2 0.00 1.12 0.03 96 1019.4
20260830132010 25 346 0.0 1.6 0.00 1.12 0.03 96 1019.5
20260830131535 25 311 0.0 1.6 0.00 1.12 0.03 96 1019.5
20260830131003 25 350 0.0 1.6 0.00 1.12 0.03 96 1019.5
20260830130509 25 318 0.0 1.6 0.00 1.12 0.03 96 1019.5
20260830130025 25 360 0.0 1.6 0.00 1.12 0.03 96 1019.5
20260830125503 24 329 0.0 1.6 0.00 1.12 0.03 96 1019.5
20260830125003 24 5 0.0 1.6 0.00 1.12 0.03 96 1019.4
20260830124508 24 5 0.0 1.6 0.00 1.12 0.03 96 1019.4
20260830124008 23 10 0.0 0.0 0.00 1.12 0.03 96 1019.4
20260830123504 23 13 0.0 0.0 0.00 1.12 0.03 96 1019.3
20260830123017 23 336 0.0 0.0 0.00 1.12 0.03 96 1019.4
20260830122508 23 336 0.0 0.0 0.00 1.12 0.03 95 1019.3
20260830122008 23 348 0.0 0.0 0.00 1.12 0.03 95 1019.2
20260830121510 23 349 0.0 0.0 0.00 1.12 0.03 95 1019.2
20260830121007 23 352 0.0 0.0 0.00 1.12 0.03 95 1019.1
20260830120511 23 352 0.0 1.6 0.00 1.12 0.03 95 1019.1